1287014434326,89.8546
1287014494326,89.4770
1287014554326,89.7066
1287014614326,89.3357
1287014674326,89.7095
1287014734326,89.4132
1287014794326,89.3456
1287014854326,89.2434
1287014914326,89.2992
1287014974326,89.6254
1287015034326,89.5589
1287015094326,89.4424
1287015154326,89.6177
1287015214326,89.2355
1287015274326,90.2185
1287015334326,89.6238
1287015394326,89.0880
1287015454326,89.1058
1287015514326,89.7573
1287015574326,89.5836
1287015634326,89.3225
1287015694326,89.0057
1287015754326,89.2111
1287015814326,89.0299
1287015874326,89.1105
1287015934326,89.1587
1287015994326,89.0667
1287016054326,89.4506
1287016114326,89.5244
1287016174326,88.9572
1287016234326,88.9973
1287016294326,88.8631
1287016354326,88.7746
1287016414326,89.3815
1287016474326,89.4289
1287016534326,88.9689
1287016594326,89.2802
1287016654326,89.3857
1287016714326,89.2739
1287016774326,88.7439
1287016834326,89.2488
1287016894326,89.2529
1287016954326,89.3269
1287017014326,89.1270
1287017074326,88.8721
1287017134326,89.2436
1287017194326,89.5489
1287017254326,89.3602
1287017314326,89.1642
1287017374326,89.6968
1287017434326,89.2692
1287017494326,89.5019
1287017554326,89.2023
1287017614326,89.4449
1287017674326,89.6184
1287017734326,89.6170
1287017794326,89.1898
1287017854326,89.6786
1287017914326,89.2671
1287017974326,89.6579
1287018034336,89.1168
1287018094336,89.2566
1287018154336,89.1652
1287018214336,89.4164
1287018274336,89.4832
1287018334336,89.4456
1287018394336,88.9586
1287018454336,89.7037
1287018514336,89.3792
1287018574336,89.9810
1287018634336,89.4352
1287018694336,89.2764
1287018754336,89.5756
1287018814336,89.5014
1287018874336,89.2177
1287018934336,89.5365
1287018994336,89.6179
1287019054336,89.4873
1287019114336,89.3269
1287019174336,89.8043
1287019234336,89.4741
1287019294336,89.3970
1287019354336,89.1819
1287019414336,89.6326
1287019474336,89.4934
1287019534336,89.5717
1287019594336,89.4989
1287019654336,89.3879
1287019714336,89.6939
1287019774336,89.5270
1287019834336,89.5338
1287019894336,89.2727
1287019954336,89.3661
1287020014336,89.3011
1287020074336,89.3475
1287020134336,89.0042
1287020194336,89.3673
1287020254336,89.2713
1287020314336,89.5361
1287020374336,89.2891
1287020434336,89.5404
1287020494336,89.3932
1287020554336,89.2197
1287020614336,89.2196
1287020674336,89.6887
1287020734336,88.8229
1287020794336,89.5241
1287020854336,89.4818
1287020914336,89.3431
1287020974336,89.1765
1287021034336,88.7844
1287021094336,89.1546
1287021154336,89.5522
1287021214336,89.0529
1287021274336,89.4258
1287021334336,89.5511
1287021394336,89.8022
1287021454336,89.3720
1287021514336,88.8013
1287021574336,88.7912
1287021634346,89.3842
1287021694346,88.9904
1287021754346,88.9637
1287021814346,88.9374
1287021874346,89.2079
1287021934346,89.3027
1287021994346,88.9703
1287022054346,88.7019
1287022114346,89.2603
1287022174346,88.5714
1287022234346,88.8898
1287022294346,89.0425
1287022354346,89.3691
1287022414346,89.1779
1287022474346,89.0862
1287022534346,89.1266
1287022594346,89.2328
1287022654346,88.9777
1287022714346,88.9663
1287022774346,89.1701
1287022834346,89.2171
1287022894346,89.1601
1287022954346,89.1279
1287023014346,89.1330
1287023074346,88.9979
1287023134346,89.4461
1287023194346,89.1861
1287023254346,89.3680
1287023314346,89.3951
1287023374346,89.4335
1287023434346,89.0402
1287023494346,89.6507
1287023554346,88.8098
1287023614346,88.9214
1287023674346,89.0595
1287023734346,89.5007
1287023794346,89.1131
1287023854346,89.1861
1287023914346,89.1862
1287023974346,89.2116
1287024034346,88.9566
1287024094346,89.2792
1287024154346,89.6077
1287024214346,89.4121
1287024274346,89.0301
1287024334346,88.7217
1287024394346,89.1680
1287024454346,88.9152
1287024514346,89.3682
1287024574346,89.2328
1287024634346,88.9368
1287024694346,89.1890
1287024754346,88.9242
1287024814346,89.1919
1287024874346,88.8731
1287024934346,89.0341
1287024994346,88.9074
1287025054346,88.7843
1287025114346,88.9703
1287025174346,88.9709
1287025234355,89.4677
1287025294355,89.5106
1287025354355,89.1669
1287025414355,89.3130
1287025474355,89.1523
1287025534355,89.2913
1287025594355,88.7496
1287025654355,89.1667
1287025714355,88.8831
1287025774355,88.6704
1287025834355,89.0284
1287025894355,89.5183
1287025954355,88.9332
1287026014355,88.8153
1287026074355,89.0896
1287026134355,89.1412
1287026194355,89.1136
1287026254355,89.3266
1287026314355,89.0870
1287026374355,88.9471
1287026434355,88.8302
1287026494355,89.2815
1287026554355,88.9682
1287026614355,89.1266
1287026674355,89.1653
1287026734355,88.2447
1287026794355,88.7945
1287026854355,89.0293
1287026914355,88.7741
1287026974355,89.0847
1287027034355,89.1237
1287027094355,89.5354
1287027154355,89.4389
1287027214355,88.8604
1287027274355,88.9307
1287027334355,89.4709
1287027394355,88.9157
1287027454355,89.2741
1287027514355,89.6313
1287027574355,88.9498
1287027634355,88.7544
1287027694355,89.1233
1287027754355,89.2533
1287027814355,88.8043
1287027874355,89.1358
1287027934355,89.1820
1287027994355,89.4010
1287028054355,89.6804
1287028114355,89.7971
1287028174355,89.1376
1287028234355,88.7029
1287028294355,88.7970
1287028354355,89.1133
1287028414355,89.0363
1287028474355,89.2798
1287028534355,89.4433
1287028594355,89.7924
1287028654355,89.3723
1287028714355,89.1132
1287028774355,89.2192
1287028834365,89.3469
1287028894365,89.4844
1287028954365,89.3824
1287029014365,89.4902
1287029074365,89.2803
1287029134365,89.3079
1287029194365,89.3097
1287029254365,89.7862
1287029314365,89.2957
1287029374365,89.0739
1287029434365,88.8484
1287029494365,89.0212
1287029554365,89.4048
1287029614365,89.2491
1287029674365,88.7341
1287029734365,89.0347
1287029794365,89.6567
1287029854365,89.2798
1287029914365,89.1988
1287029974365,89.1015
1287030034365,89.2898
1287030094365,89.3030
1287030154365,89.3983
1287030214365,89.1932
1287030274365,89.0639
1287030334365,89.7732
1287030394365,89.6625
1287030454365,89.6984
1287030514365,89.1253
1287030574365,89.1455
1287030634365,89.5530
1287030694365,89.0814
1287030754365,89.2139
1287030814365,89.7164
1287030874365,89.6133
1287030934365,89.3792
1287030994365,89.4197
1287031054365,89.4636
1287031114365,89.0747
1287031174365,89.0803
1287031234365,88.4524
1287031294365,89.1527
1287031354365,88.7035
1287031414365,89.2289
1287031474365,88.8654
1287031534365,89.2915
1287031594365,89.0985
1287031654365,89.4198
1287031714365,89.6803
1287031774365,89.1021
1287031834365,89.4451
1287031894365,89.2333
1287031954365,88.9752
1287032014365,89.4328
1287032074365,88.9624
1287032134365,89.1300
1287032194365,89.1760
1287032254365,88.8797
1287032314365,89.2918
1287032374365,89.6489
1287032434375,89.4933
1287032494375,89.1209
1287032554375,89.1790
1287032614375,88.9902
1287032674375,89.4216
1287032734375,89.1366
1287032794375,89.1741
1287032854375,89.6364
1287032914375,88.8668
1287032974375,88.4387
1287033034375,89.2117
1287033094375,88.6954
1287033154375,89.2147
1287033214375,88.5605
1287033274375,89.2371
1287033334375,88.4485
1287033394375,89.2459
1287033454375,88.8462
1287033514375,88.8773
1287033574375,88.8991
1287033634375,88.8217
1287033694375,88.6352
1287033754375,88.9485
1287033814375,89.0037
1287033874375,88.7386
1287033934375,89.1059
1287033994375,89.2200
1287034054375,88.7246
1287034114375,88.9421
1287034174375,88.7939
1287034234375,88.9761
1287034294375,88.9796
1287034354375,88.9911
1287034414375,89.0593
1287034474375,88.4963
1287034534375,89.4700
1287034594375,88.7249
1287034654375,88.7566
1287034714375,89.2543
1287034774375,88.9945
1287034834375,88.2458
1287034894375,88.9453
1287034954375,89.3825
1287035014375,89.1658
1287035074375,88.8992
1287035134375,88.6171
1287035194375,89.2940
1287035254375,89.0217
1287035314375,89.0118
1287035374375,89.0212
1287035434375,88.7020
1287035494375,89.2807
1287035554375,88.8810
1287035614375,88.8610
1287035674375,88.9088
1287035734375,88.7522
1287035794375,88.6994
1287035854375,88.8806
1287035914375,88.8766
1287035974375,89.0063
1287036034384,89.1772
1287036094384,88.9674
1287036154384,89.1567
1287036214384,88.8073
1287036274384,88.9438
1287036334384,88.5029
1287036394384,88.6369
1287036454384,88.7527
1287036514384,89.0396
1287036574384,89.0059
1287036634384,88.6441
1287036694384,89.3841
1287036754384,89.0367
1287036814384,89.1844
1287036874384,88.9347
1287036934384,88.5744
1287036994384,89.2645
1287037054384,88.8379
1287037114384,89.0134
1287037174384,89.2579
1287037234384,89.0618
1287037294384,89.2149
1287037354384,89.2948
1287037414384,89.1053
1287037474384,89.2139
1287037534384,88.6408
1287037594384,88.8300
1287037654384,89.4383
1287037714384,89.5395
1287037774384,88.9704
1287037834384,89.0442
1287037894384,88.8474
1287037954384,88.7361
1287038014384,89.0961
1287038074384,88.9974
1287038134384,88.7267
1287038194384,88.6352
1287038254384,88.9705
1287038314384,89.0037
1287038374384,88.8699
1287038434384,88.9457
1287038494384,88.5586
1287038554384,88.9501
1287038614384,88.7427
1287038674384,88.9631
1287038734384,89.3349
1287038794384,88.5690
1287038854384,89.0557
1287038914384,88.6929
1287038974384,88.8451
1287039034384,88.8669
1287039094384,88.4398
1287039154384,88.7812
1287039214384,89.1151
1287039274384,88.8224
1287039334384,88.5947
1287039394384,88.7576
1287039454384,88.7925
1287039514384,88.8481
1287039574384,88.4921
1287039634394,88.9081
1287039694394,89.0457
1287039754394,89.1489
1287039814394,88.7951
1287039874394,88.7494
1287039934394,88.9205
1287039994394,88.7424
1287040054394,89.1904
1287040114394,88.8538
1287040174394,89.0891
1287040234394,89.2355
1287040294394,88.8028
1287040354394,89.1056
1287040414394,88.5936
1287040474394,88.5583
1287040534394,88.5918
1287040594394,89.4586
1287040654394,88.4087
1287040714394,89.1572
1287040774394,89.0647
1287040834394,88.8263
1287040894394,88.9537
1287040954394,89.1561
1287041014394,88.7131
1287041074394,88.5139
1287041134394,89.3435
1287041194394,88.9186
1287041254394,88.8984
1287041314394,88.6236
1287041374394,88.4085
1287041434394,89.0125
1287041494394,88.5578
1287041554394,88.7522
1287041614394,88.8573
1287041674394,88.4930
1287041734394,88.7771
1287041794394,89.1049
1287041854394,88.4194
1287041914394,88.8143
1287041974394,88.8109
1287042034394,88.8753
1287042094394,88.7493
1287042154394,88.8162
1287042214394,88.7152
1287042274394,88.8239
1287042334394,88.7668
1287042394394,88.8610
1287042454394,88.3870
1287042514394,88.8001
1287042574394,89.0447
1287042634394,88.8688
1287042694394,88.4976
1287042754394,89.2997
1287042814394,89.0631
1287042874394,88.4150
1287042934394,88.5696
1287042994394,88.8131
1287043054394,89.2289
1287043114394,88.9551
1287043174394,88.6380
1287043234404,89.0322
1287043294404,88.9838
1287043354404,88.7959
1287043414404,88.7360
1287043474404,89.1189
1287043534404,88.8222
1287043594404,88.8280
1287043654404,89.0177
1287043714404,88.9109
1287043774404,89.0822
1287043834404,88.5410
1287043894404,88.9829
1287043954404,88.5940
1287044014404,88.9831
1287044074404,89.4387
1287044134404,89.0956
1287044194404,89.1225
1287044254404,88.9774
1287044314404,88.3638
1287044374404,88.6783
1287044434404,88.9726
1287044494404,89.0554
1287044554404,89.1216
1287044614404,88.6738
1287044674404,88.8682
1287044734404,88.7834
1287044794404,88.5625
1287044854404,88.5025
1287044914404,88.8889
1287044974404,89.1599
1287045034404,88.4669
1287045094404,88.5241
1287045154404,88.8398
1287045214404,88.8944
1287045274404,88.8956
1287045334404,89.4555
1287045394404,88.9153
1287045454404,88.5376
1287045514404,89.2372
1287045574404,88.9423
1287045634404,88.9282
1287045694404,89.1771
1287045754404,88.9251
1287045814404,89.3368
1287045874404,89.2435
1287045934404,89.2794
1287045994404,88.7563
1287046054404,89.2813
1287046114404,89.0429
1287046174404,89.3709
1287046234404,89.1599
1287046294404,89.2491
1287046354404,89.6679
1287046414404,89.5166
1287046474404,89.0566
1287046534404,89.4657
1287046594404,89.1300
1287046654404,88.8889
1287046714404,89.7145
1287046774404,89.1784
1287046834414,89.1450
1287046894414,89.2344
1287046954414,89.3740
1287047014414,89.3700
1287047074414,89.8778
1287047134414,89.2672
1287047194414,89.1283
1287047254414,89.3101
1287047314414,88.9799
1287047374414,89.2937
1287047434414,89.9121
1287047494414,89.2459
1287047554414,88.8338
1287047614414,89.2609
1287047674414,89.4628
1287047734414,89.3885
1287047794414,89.3024
1287047854414,89.6680
1287047914414,89.0200
1287047974414,88.9765
1287048034414,89.3041
1287048094414,89.5443
1287048154414,89.1209
1287048214414,89.1596
1287048274414,88.9706
1287048334414,89.0023
1287048394414,89.5131
1287048454414,89.2241
1287048514414,89.2258
1287048574414,89.1985
1287048634414,89.3946
1287048694414,88.8636
1287048754414,89.2029
1287048814414,89.1803
1287048874414,89.3604
1287048934414,89.0446
1287048994414,89.3886
1287049054414,89.2909
1287049114414,89.3980
1287049174414,89.1596
1287049234414,88.8338
1287049294414,89.5498
1287049354414,89.2224
1287049414414,89.7242
1287049474414,89.4302
1287049534414,89.1873
1287049594414,89.3398
1287049654414,89.4720
1287049714414,88.9342
1287049774414,89.1985
1287049834414,89.5335
1287049894414,88.9020
1287049954414,89.3432
1287050014414,89.4238
1287050074414,89.0398
1287050134414,89.5824
1287050194414,89.1709
1287050254414,89.6488
1287050314414,89.0852
1287050374414,88.7132
1287050434424,88.6915
1287050494424,89.5605
1287050554424,89.2554
1287050614424,88.7738
1287050674424,89.1969
1287050734424,89.0358
1287050794424,89.0532
1287050854425,89.2456
1287050914424,89.1297
1287050974424,89.1215
1287051034424,88.7630
1287051094424,89.2647
1287051154424,89.1609
1287051214424,89.2871
1287051274424,89.3081
1287051334424,89.0647
1287051394424,89.0517
1287051454424,89.1370
1287051514424,89.1845
1287051574424,89.2270
1287051634424,89.0386
1287051694424,89.0960
1287051754424,89.1191
1287051814424,89.1498
1287051874424,89.2487
1287051934424,89.0606
1287051994424,88.9941
1287052054424,89.2657
1287052114424,89.1433
1287052174424,89.2669
1287052234424,88.9901
1287052294424,88.9877
1287052354424,88.8895
1287052414424,88.9163
1287052474424,89.0305
1287052534424,89.3677
1287052594424,88.8713
1287052654424,89.0645
1287052714424,88.9001
1287052774424,88.9662
1287052834424,88.7956
1287052894424,88.9094
1287052954424,89.0834
1287053014424,89.0640
1287053074424,89.4240
1287053134424,89.0119
1287053194424,89.3272
1287053254424,89.1831
1287053314424,88.6856
1287053374424,88.6686
1287053434424,89.0099
1287053494424,88.8191
1287053554425,89.3359
1287053614424,89.2552
1287053674424,89.0434
1287053734424,89.0827
1287053794424,89.4593
1287053854424,89.1935
1287053914424,89.2766
1287053974424,88.9107
1287054034435,89.4171
1287054094435,88.9262
1287054154435,88.9998
1287054214435,89.0485
1287054274435,89.0000
1287054334435,88.9303
1287054394435,89.4345
1287054454435,89.2244
1287054514435,88.6884
1287054574435,88.5955
1287054634435,88.3127
1287054694435,88.7592
1287054754435,88.6786
1287054814435,89.2737
1287054874435,88.6634
1287054934435,89.0272
1287054994435,88.6324
1287055054435,88.7527
1287055114435,89.1310
1287055174435,88.9000
1287055234435,88.8266
1287055294435,88.3282
1287055354435,88.8782
1287055414435,89.1794
1287055474435,89.2972
1287055534435,89.3302
1287055594435,89.0804
1287055654435,89.0861
1287055714435,89.2017
1287055774435,88.8322
1287055834435,89.1664
1287055894435,89.5652
1287055954435,88.8473
1287056014435,89.3131
1287056074435,88.7187
1287056134435,89.0793
1287056194435,89.1860
1287056254435,88.8116
1287056314435,89.2130
1287056374435,88.9960
1287056434435,88.7935
1287056494435,88.8641
1287056554435,88.9671
1287056614435,89.2661
1287056674435,89.1441
1287056734435,89.2757
1287056794435,89.0710
1287056854435,88.8576
1287056914435,88.8290
1287056974435,89.1364
1287057034435,88.4111
1287057094435,88.7562
1287057154435,89.1020
1287057214435,88.8404
1287057274435,88.7218
1287057334435,89.0486
1287057394435,89.3274
1287057454435,89.2222
1287057514435,88.3368
1287057574435,88.9600
1287057634446,89.1446
1287057694445,89.0317
1287057754445,89.1046
1287057814445,89.3541
1287057874445,89.0349
1287057934445,89.1569
1287057994445,89.2047
1287058054445,88.7981
1287058114445,89.0447
1287058174445,88.7566
1287058234445,89.2621
1287058294445,89.3923
1287058354445,88.9665
1287058414445,89.0716
1287058474445,89.4669
1287058534445,89.1181
1287058594445,89.3303
1287058654445,89.1845
1287058714445,89.2256
1287058774446,89.2483
1287058834446,88.7957
1287058894446,89.2852
1287058954446,89.6467
1287059014445,88.6759
1287059074445,89.2720
1287059134445,88.7797
1287059194445,89.2252
1287059254445,88.9857
1287059314445,89.4775
1287059374445,88.8960
1287059434445,88.9737
1287059494445,89.0639
1287059554445,89.0852
1287059614445,89.1416
1287059674445,89.1122
1287059734445,89.3255
1287059794445,89.3837
1287059854445,88.8965
1287059914445,89.5057
1287059974445,88.8439
1287060034445,89.3176
1287060094445,89.2495
1287060154446,89.1228
1287060214446,88.7956
1287060274446,88.6964
1287060334446,89.0218
1287060394445,89.1242
1287060454445,89.0401
1287060514445,89.4612
1287060574445,88.9800
1287060634445,89.4270
1287060694445,88.8932
1287060754445,89.2400
1287060814445,88.9648
1287060874445,88.7138
1287060934445,88.8086
1287060994445,88.8900
1287061054445,89.2620
1287061114445,88.9205
1287061174445,88.7069
1287061234456,89.0452
1287061294456,89.0673
1287061354456,89.1695
1287061414456,88.9893
1287061474456,89.0294
1287061534456,88.6068
1287061594456,89.6422
1287061654456,89.0317
1287061714456,88.9885
1287061774456,88.7313
1287061834456,88.9909
1287061894456,88.8788
1287061954456,88.8499
1287062014456,89.0321
1287062074456,89.2199
1287062134456,89.0407
1287062194456,89.4090
1287062254456,88.8498
1287062314456,88.9877
1287062374456,89.1929
1287062434456,89.2256
1287062494456,89.2379
1287062554456,89.1966
1287062614456,89.1112
1287062674456,88.8549
1287062734456,89.4603
1287062794456,88.7413
1287062854456,89.2755
1287062914456,89.1086
1287062974456,88.9907
1287063034456,89.1063
1287063094456,88.6290
1287063154456,89.1042
1287063214456,88.8317
1287063274456,89.0019
1287063334456,88.8580
1287063394456,88.7830
1287063454456,89.1293
1287063514456,89.1170
1287063574456,88.8218
1287063634456,89.0585
1287063694456,89.2513
1287063754456,89.1131
1287063814456,88.7720
1287063874456,89.2658
1287063934456,89.2044
1287063994456,88.9143
1287064054456,89.0712
1287064114456,89.0855
1287064174456,88.5179
1287064234456,88.6789
1287064294456,89.3426
1287064354456,89.1128
1287064414456,89.2784
1287064474456,89.0114
1287064534456,89.1446
1287064594456,89.4820
1287064654456,89.2237
1287064714456,88.9782
1287064774456,89.3469
1287064834467,89.6102
1287064894467,89.0698
1287064954467,89.1612
1287065014467,89.1793
1287065074467,88.7166
1287065134467,89.1519
1287065194467,89.3114
1287065254467,89.0519
1287065314467,88.9382
1287065374467,88.7390
1287065434467,89.1945
1287065494467,89.0640
1287065554467,89.5296
1287065614467,88.6537
1287065674467,88.7718
1287065734467,89.1781
1287065794467,89.3939
1287065854467,88.8427
1287065914467,88.9508
1287065974467,89.3518
1287066034467,88.8238
1287066094467,89.0438
1287066154467,89.1633
1287066214467,89.4780
1287066274467,88.8829
1287066334467,89.1918
1287066394467,89.5982
1287066454467,89.4642
1287066514467,89.1034
1287066574467,88.5747
1287066634467,88.8065
1287066694467,88.8869
1287066754467,89.1116
1287066814467,89.2262
1287066874467,89.1144
1287066934467,89.0981
1287066994467,88.9944
1287067054467,88.8512
1287067114467,88.8663
1287067174467,89.2094
1287067234467,89.3311
1287067294467,89.0178
1287067354467,88.8462
1287067414467,88.7555
1287067474467,89.2354
1287067534467,89.4303
1287067594467,89.1907
1287067654467,89.0248
1287067714467,88.6578
1287067774467,89.2520
1287067834467,88.8721
1287067894467,88.8411
1287067954467,89.0954
1287068014467,88.7165
1287068074467,88.7849
1287068134467,89.3279
1287068194467,89.1417
1287068254467,89.0231
1287068314467,88.4341
1287068374467,88.7099
1287068434479,88.8506
1287068494479,89.5522
1287068554479,88.9607
1287068614479,89.2160
1287068674479,89.1150
1287068734479,89.0790
1287068794479,89.4568
1287068854479,89.2448
1287068914479,89.1922
1287068974479,89.1823
1287069034479,89.3591
1287069094479,88.7829
1287069154479,88.8929
1287069214479,89.1719
1287069274479,89.3988
1287069334479,89.2393
1287069394479,89.3990
1287069454479,89.5220
1287069514479,89.2508
1287069574479,89.3797
1287069634479,89.2268
1287069694479,89.1565
1287069754479,89.1337
1287069814479,89.3808
1287069874479,89.5400
1287069934479,89.3094
1287069994479,89.5436
1287070054479,89.0906
1287070114479,88.8003
1287070174479,89.1204
1287070234479,89.4206
1287070294479,89.5733
1287070354479,89.0128
1287070414479,89.1502
1287070474479,89.6165
1287070534479,89.1442
1287070594479,89.0505
1287070654479,88.9169
1287070714479,89.3104
1287070774479,89.8744
1287070834479,89.4221
1287070894479,89.3226
1287070954479,88.9105
1287071014479,89.4933
1287071074479,89.2728
1287071134479,89.7790
1287071194479,89.3958
1287071254479,89.7592
1287071314479,89.8975
1287071374479,89.6932
1287071434479,89.5508
1287071494479,89.1754
1287071554479,89.6954
1287071614479,89.7746
1287071674479,89.8703
1287071734479,88.9309
1287071794479,89.7093
1287071854479,89.0941
1287071914479,89.1203
1287071974479,89.4445
1287072034490,89.4446
1287072094490,89.7339
1287072154490,89.3181
1287072214490,89.3628
1287072274490,89.3939
1287072334490,89.5207
1287072394490,89.3642
1287072454490,89.4833
1287072514490,89.5507
1287072574490,89.5899
1287072634490,89.7042
1287072694490,89.3558
1287072754490,89.4541
1287072814490,89.9805
1287072874490,90.1554
1287072934490,90.0049
1287072994490,89.9686
1287073054490,89.7352
1287073114490,89.8861
1287073174490,89.7769
1287073234490,89.6698
1287073294490,90.0948
1287073354490,90.2139
1287073414490,89.5307
1287073474490,89.5196
1287073534490,89.8763
1287073594490,89.5938
1287073654490,89.4822
1287073714490,89.9269
1287073774490,89.7540
1287073834490,89.7799
1287073894490,90.0726
1287073954490,89.9936
1287074014490,89.7516
1287074074490,90.0131
1287074134490,90.0302
1287074194490,90.1702
1287074254490,89.6757
1287074314490,89.9198
1287074374490,90.0948
1287074434490,90.0777
1287074494490,89.8721
1287074554490,89.9741
1287074614490,90.0889
1287074674490,89.8933
1287074734490,90.1985
1287074794490,90.3016
1287074854490,89.6107
1287074914490,89.8061
1287074974490,90.5425
1287075034490,89.9811
1287075094490,90.0222
1287075154490,89.9278
1287075214490,89.9692
1287075274490,90.2185
1287075334490,89.7329
1287075394490,90.3141
1287075454490,89.9541
1287075514490,90.3438
1287075574490,89.8877
1287075634501,90.1706
1287075694501,90.0736
1287075754501,90.3810
1287075814501,89.9504
1287075874501,90.0752
1287075934501,90.2842
1287075994501,90.1237
1287076054501,90.0107
1287076114501,90.2274
1287076174501,90.0778
1287076234501,89.8949
1287076294501,90.1484
1287076354501,90.1266
1287076414501,90.3954
1287076474501,89.8993
1287076534501,90.1859
1287076594501,90.4133
1287076654501,90.3787
1287076714501,90.1109
1287076774501,90.3545
1287076834501,90.2143
1287076894501,90.1879
1287076954501,90.1016
1287077014501,90.3106
1287077074501,90.4943
1287077134501,90.5140
1287077194501,90.3615
1287077254501,90.0443
1287077314501,90.2137
1287077374501,90.3409
1287077434501,90.6885
1287077494501,90.1693
1287077554501,90.1276
1287077614501,90.4410
1287077674501,90.2727
1287077734501,90.3016
1287077794501,90.4004
1287077854501,90.3588
1287077914501,90.2870
1287077974501,90.9049
1287078034501,90.2331
1287078094501,90.3091
1287078154501,90.6071
1287078214501,90.5180
1287078274501,90.5436
1287078334501,90.4219
1287078394501,89.8467
1287078454501,90.0699
1287078514501,90.1598
1287078574501,90.0544
1287078634501,90.1096
1287078694501,90.0893
1287078754501,90.3099
1287078814501,90.0375
1287078874501,90.7685
1287078934501,89.8495
1287078994501,90.3009
1287079054501,90.2336
1287079114501,90.8624
1287079174501,90.4606
1287079234512,90.3417
1287079294512,90.0163
1287079354512,89.8852
1287079414512,90.5656
1287079474512,90.3033
1287079534512,90.3619
1287079594512,90.3891
1287079654512,90.5020
1287079714512,90.1869
1287079774512,90.2659